Weather in Comodoro Rivadavia

Argentina     45°50′23″S   67°29′14″W
temp.,
°C
wind,
m/s
gust,
m/s
humid.,
%
clouds,
%
prec.,
mm/h
press.,
hPa
HPBL,
m
31 july, sat
sat3100:00+5wsw610410 0.0 1021210
03:00+4wnw44430 0.0 102449
06:00+3wnw45470 0.0 102656
09:00+2nw44590 0.0 102752
12:00+7nnw57330 0.0 1027617
15:00+10nnw810235 0.0 1024856
18:00+9nnw61133100 0.0 1022380
21:00+8nnw8154029 0.0 1020285
1 august, sun
sun100:00+7nw3440100 0.0 101961
03:00+9nw4531100 0.0 1016108
06:00+9wnw5928100 0.0 1015136
09:00+10wnw6122692 0.0 1013198
12:00+13wnw91924100 0.0 1012628
15:00+14wnw112329100 0.0 1010611
18:00+15wnw132432100 0.0 1009632
21:00+13wnw122337100 0.0 1009609
2 august, mon
mon200:00+13wnw71241100 0.0 1012200
03:00+12wnw92043100 0.0 1011463
06:00+12wnw122247100 0.0 1011498
09:00+12wnw142253100 0.0 1013397
12:00+14wnw121548100 0.0 1015789
15:00+15w121645100 0.0 10161268
18:00+13wnw91550100 0.0 1016895
21:00+12w101939100 0.0 1017597
3 august, tue
tue300:00+10w612411 0.0 1020330
03:00+7wnw44520 0.0 102342
06:00+6wnw44491 0.0 102428
09:00+6nw33540 0.0 102518
12:00+11n24360 0.0 1026402
15:00+13nw453021 0.0 1024782
18:00+13n3343100 0.0 102244
21:00+10nnw3557100 0.0 102169
4 august, wed
wed400:00+10n33585 0.0 101920
03:00+10nw33585 0.0 101725
06:00+9nw33605 0.0 101617
09:00+9nw445712 0.0 101523
12:00+14nnw2339100 0.0 1013128
15:00+18n3529100 0.0 1008287
18:00+16n4531100 0.0 100577
21:00+17nnw111929100 0.0 1002288